Jacksonville, IL

10:47 AM CDT on August 30, 2016 (GMT -0500)
Jacksonville Municipal

Weather History for KIJX - January, 2013

Change the Weather History Date:

Friday, January 18, 2013

  Actual Average (KSPI) Record (KSPI)
Temperature  
Mean Temperature 37 °F 26 °F  
Max Temperature 50 °F 35 °F 62 °F (1880)
Min Temperature 24 °F 18 °F -18 °F (1930)
Degree Days  
Heating Degree Days 28 39  
Month to date heating degree days 691  
Since 1 July heating degree days 2831  
Cooling Degree Days 0 0  
Month to date cooling degree days 0  
Year to date cooling degree days 0  
Moisture  
Dew Point 27 °F    
Average Humidity 62    
Maximum Humidity 87    
Minimum Humidity 47    
Precipitation  
Precipitation 0.00 in 0.06 in 1.74 in (1907)
Month to date precipitation 1.11  
Year to date precipitation 1.11  
Snow  
Snow 0.00 in 0.20 in 3.50 in (1886)
Month to date snowfall 3.7  
Since 1 July snowfall 9.9  
Snow Depth -    
Sea Level Pressure  
Sea Level Pressure 30.27 in    
Wind  
Wind Speed 9 mph (South)    
Max Wind Speed 23 mph    
Max Gust Speed 30 mph    
Visibility 10 miles    
Events      
T = Trace of Precipitation, MM = Missing Value Source: NWS Daily Summary

Daily Weather History Graph

Daily Weather History Graph

Search for Another Location

Airport or City:

Trip Planner

Search our weather history database for the weather conditions in past years. The results will help you decide how hot, cold, wet, or windy it might be!

Date:

Astronomy

Jan. 18, 2013 Rise Set
Actual Time 7:18 AM CST 5:04 PM CST
Civil Twilight 6:49 AM CST 5:33 PM CST
Nautical Twilight 6:16 AM CST 6:07 PM CST
Astronomical Twilight 5:44 AM CST 6:39 PM CST
Moon 10:58 AM CST (1/18) No Moon Set
Length of Visible Light 10h 44m
Length of Day
9h 45m
Waxing Crescent, 47% of the Moon is Illuminated
Jan 18
Waxing Crescent
Jan 18
First Quarter
Jan 26
Full
Feb 3
Last Quarter
Feb 10
New

Hourly Weather History & Observations

Time (CST) Temp. Windchill Dew Point Humidity Pressure Visibility Wind Dir Wind Speed Gust Speed Precip Events Conditions
12:15 AM 25.2 °F - 21.9 °F 87% 30.46 in 10.0 mi Calm Calm - N/A   Clear
12:35 AM 25.3 °F - 21.6 °F 86% 30.47 in 10.0 mi Calm Calm - N/A   Clear
12:55 AM 24.4 °F - 21.2 °F 87% 30.48 in 10.0 mi Calm Calm - N/A   Clear
1:15 AM 25.5 °F - 22.1 °F 87% 30.47 in 10.0 mi Calm Calm - N/A   Clear
1:35 AM 27.0 °F - 21.7 °F 81% 30.47 in 10.0 mi Calm Calm - N/A   Clear
1:55 AM 27.9 °F - 21.2 °F 76% 30.47 in 10.0 mi Calm Calm - N/A   Clear
2:15 AM 27.9 °F - 21.0 °F 75% 30.47 in 10.0 mi Calm Calm - N/A   Clear
2:35 AM 27.9 °F 22.6 °F 21.0 °F 75% 30.47 in 10.0 mi SSW 4.6 mph - N/A   Clear
2:55 AM 28.6 °F 21.5 °F 21.2 °F 74% 30.46 in 10.0 mi SSW 6.9 mph - N/A   Clear
3:15 AM 28.9 °F 21.9 °F 21.2 °F 73% 30.46 in 10.0 mi South 6.9 mph - N/A   Clear
3:35 AM 29.3 °F - 21.2 °F 72% 30.45 in 10.0 mi Calm Calm - N/A   Clear
3:55 AM 29.5 °F 22.5 °F 21.6 °F 72% 30.45 in 10.0 mi SSW 6.9 mph - N/A   Clear
4:15 AM 29.3 °F 21.5 °F 21.7 °F 73% 30.45 in 10.0 mi SSW 8.1 mph - N/A   Clear
4:35 AM 28.4 °F 22.2 °F 21.6 °F 76% 30.44 in 10.0 mi South 5.8 mph - N/A   Clear
4:55 AM 28.8 °F 21.7 °F 21.6 °F 74% 30.43 in 10.0 mi South 6.9 mph - N/A   Clear
5:15 AM 29.7 °F 21.3 °F 21.7 °F 72% 30.43 in 10.0 mi South 9.2 mph - N/A   Clear
5:35 AM 29.3 °F 20.8 °F 21.9 °F 74% 30.42 in 10.0 mi South 9.2 mph - N/A   Clear
5:55 AM 29.3 °F 21.5 °F 21.9 °F 74% 30.42 in 10.0 mi South 8.1 mph - N/A   Clear
6:15 AM 29.3 °F 21.5 °F 21.9 °F 74% 30.42 in 10.0 mi South 8.1 mph - N/A   Clear
6:35 AM 28.9 °F 21.1 °F 21.9 °F 75% 30.42 in 10.0 mi South 8.1 mph - N/A   Clear
6:55 AM 29.3 °F 21.5 °F 22.1 °F 75% 30.41 in 10.0 mi South 8.1 mph - N/A   Clear
7:15 AM 30.2 °F 21.9 °F 22.1 °F 72% 30.41 in 10.0 mi South 9.2 mph - N/A   Clear
7:35 AM 30.6 °F 21.2 °F 22.6 °F 72% 30.40 in 10.0 mi South 11.5 mph - N/A   Clear
7:55 AM 31.6 °F 22.6 °F 23.0 °F 70% 30.40 in 10.0 mi South 11.5 mph 16.1 mph N/A   Clear
8:15 AM 32.0 °F 23.0 °F 23.7 °F 71% 30.40 in 10.0 mi South 11.5 mph - N/A   Clear
8:35 AM 32.9 °F 23.2 °F 23.9 °F 69% 30.40 in 10.0 mi South 13.8 mph - N/A   Clear
8:55 AM 33.8 °F 24.3 °F 24.4 °F 69% 30.40 in 10.0 mi South 13.8 mph - N/A   Clear
9:15 AM 35.2 °F 26.2 °F 25.3 °F 67% 30.39 in 10.0 mi South 13.8 mph - N/A   Clear
9:35 AM 37.2 °F 28.7 °F 25.3 °F 62% 30.39 in 10.0 mi South 13.8 mph 21.9 mph N/A   Clear
9:55 AM 38.7 °F 29.5 °F 25.7 °F 60% 30.38 in 10.0 mi South 17.3 mph - N/A   Clear
10:15 AM 39.4 °F 30.4 °F 25.7 °F 58% 30.37 in 10.0 mi South 17.3 mph 24.2 mph N/A   Clear
10:35 AM 40.1 °F 31.6 °F 26.4 °F 58% 30.37 in 10.0 mi South 16.1 mph 20.7 mph N/A   Clear
10:55 AM 41.5 °F 34.6 °F 28.0 °F 59% 30.35 in 10.0 mi South 12.7 mph - N/A   Clear
11:15 AM 43.2 °F 34.5 °F 28.0 °F 55% 30.33 in 10.0 mi SSW 20.7 mph 26.5 mph N/A   Clear
11:35 AM 44.1 °F 36.2 °F 28.9 °F 55% 30.31 in 10.0 mi SSW 18.4 mph 25.3 mph N/A   Clear
11:55 AM 45.0 °F 37.6 °F 29.8 °F 55% 30.29 in 10.0 mi South 17.3 mph 24.2 mph N/A   Clear
12:15 PM 45.3 °F 36.9 °F 30.0 °F 55% 30.27 in 10.0 mi SSW 23.0 mph 27.6 mph N/A   Clear
12:35 PM 46.6 °F - 30.9 °F 54% 30.24 in 10.0 mi SSW 18.4 mph 26.5 mph N/A   Clear
12:55 PM 46.9 °F - 30.7 °F 53% 30.23 in 10.0 mi South 19.6 mph 27.6 mph N/A   Clear
1:15 PM 48.2 °F - 31.6 °F 53% 30.21 in 10.0 mi SSW 21.9 mph 29.9 mph N/A   Clear
1:35 PM 48.4 °F - 31.1 °F 51% 30.20 in 10.0 mi South 18.4 mph 26.5 mph N/A   Clear
1:55 PM 49.6 °F - 31.1 °F 49% 30.19 in 10.0 mi South 20.7 mph 27.6 mph N/A   Clear
2:15 PM 50.0 °F - 30.4 °F 47% 30.18 in 10.0 mi South 23.0 mph - N/A   Clear
2:35 PM 50.0 °F - 32.0 °F 50% 30.16 in 10.0 mi South 15.0 mph 24.2 mph N/A   Clear
2:55 PM 50.0 °F - 32.0 °F 50% 30.15 in 10.0 mi South 19.6 mph 23.0 mph N/A   Clear
3:15 PM 50.0 °F - 31.5 °F 49% 30.14 in 10.0 mi South 18.4 mph 28.8 mph N/A   Clear
3:35 PM 50.2 °F - 30.6 °F 47% 30.14 in 10.0 mi South 18.4 mph 24.2 mph N/A   Clear
3:55 PM 50.0 °F - 30.6 °F 47% 30.13 in 10.0 mi South 17.3 mph 20.7 mph N/A   Clear
4:15 PM 49.1 °F - 31.1 °F 50% 30.12 in 10.0 mi South 16.1 mph - N/A   Clear
4:35 PM 47.7 °F - 31.6 °F 54% 30.11 in 10.0 mi South 15.0 mph 20.7 mph N/A   Clear
4:55 PM 46.6 °F - 31.1 °F 55% 30.10 in 10.0 mi South 16.1 mph - N/A   Clear
5:15 PM 45.7 °F 38.6 °F 30.7 °F 56% 30.10 in 10.0 mi South 17.3 mph - N/A   Clear
5:35 PM 45.1 °F 38.1 °F 30.2 °F 56% 30.10 in 10.0 mi South 16.1 mph 20.7 mph N/A   Clear
5:55 PM 45.1 °F 37.6 °F 30.0 °F 55% 30.09 in 10.0 mi South 18.4 mph 23.0 mph N/A   Clear
6:15 PM 45.3 °F 38.1 °F 29.7 °F 54% 30.08 in 10.0 mi South 17.3 mph - N/A   Clear
6:35 PM 45.5 °F 38.3 °F 29.1 °F 53% 30.08 in 10.0 mi South 17.3 mph 24.2 mph N/A   Clear
6:55 PM 45.7 °F 37.8 °F 28.8 °F 52% 30.07 in 10.0 mi South 20.7 mph 26.5 mph N/A   Clear
7:15 PM 45.9 °F 38.3 °F 28.4 °F 51% 30.07 in 10.0 mi South 19.6 mph 27.6 mph N/A   Clear
7:35 PM 44.6 °F 38.1 °F 28.4 °F 53% 30.07 in 10.0 mi South 13.8 mph 21.9 mph N/A   Clear
7:55 PM 45.1 °F 38.1 °F 28.2 °F 52% 30.07 in 10.0 mi South 16.1 mph 19.6 mph N/A   Clear
8:15 PM 45.5 °F 38.6 °F 28.2 °F 51% 30.07 in 10.0 mi SSW 16.1 mph 23.0 mph N/A   Clear
8:35 PM 46.4 °F 40.1 °F 28.4 °F 50% 30.08 in 10.0 mi SSW 15.0 mph 20.7 mph N/A   Clear
8:55 PM 44.8 °F 38.3 °F 28.2 °F 52% 30.08 in 10.0 mi SSW 13.8 mph - N/A   Clear
9:15 PM 44.1 °F 37.7 °F 28.2 °F 54% 30.08 in 10.0 mi South 12.7 mph - N/A   Clear
9:35 PM 43.9 °F 37.5 °F 28.4 °F 55% 30.08 in 10.0 mi SSW 12.7 mph - N/A   Clear
9:55 PM 43.9 °F 37.5 °F 28.6 °F 55% 30.08 in 10.0 mi SSW 12.7 mph - N/A   Clear
10:15 PM 44.1 °F 37.1 °F 28.9 °F 55% 30.08 in 10.0 mi SSW 15.0 mph - N/A   Clear
10:35 PM 44.2 °F 37.6 °F 29.1 °F 55% 30.08 in 10.0 mi SSW 13.8 mph - N/A   Clear
10:55 PM 43.7 °F 36.3 °F 29.1 °F 57% 30.08 in 10.0 mi SSW 16.1 mph - N/A   Clear
11:15 PM 43.9 °F 36.5 °F 29.1 °F 56% 30.08 in 10.0 mi SSW 16.1 mph - N/A   Clear
11:35 PM 43.9 °F 36.8 °F 29.3 °F 57% 30.07 in 10.0 mi SSW 15.0 mph 20.7 mph N/A   Clear
11:55 PM 43.9 °F 36.5 °F 29.3 °F 57% 30.07 in 10.0 mi SSW 16.1 mph 20.7 mph N/A   Clear